Rexburg, ID

5:45 AM MDT on June 23, 2017 (GMT -0600)
Rexburg-Madison County

Weather History for KRXE - June, 2013

Change the Weather History Date:

Monday, June 10, 2013

  Actual Average Record
Temperature  
Mean Temperature 72 °F 59 °F  
Max Temperature 89 °F 73 °F 89 °F (2013)
Min Temperature 54 °F 45 °F 35 °F (2005)
Degree Days  
Heating Degree Days 0 7  
Month to date heating degree days 44 77  
Since 1 June heating degree days 44 77  
Since 1 July heating degree days 7728 8035  
Cooling Degree Days 7 0  
Month to date cooling degree days 11 0  
Year to date cooling degree days 13 4  
Since 1 June cooling degree days 11 0  
Growing Degree Days 22 (Base 50)    
Moisture  
Dew Point 42 °F    
Average Humidity 44    
Maximum Humidity 72    
Minimum Humidity 16    
Precipitation  
Precipitation 0.00 in 0.05 in 1.64 in (2004)
Month to date precipitation 0.00 0.62  
Year to date precipitation 4.25 6.49  
Sea Level Pressure  
Sea Level Pressure 29.66 in    
Wind  
Wind Speed 8 mph (SSW)    
Max Wind Speed 20 mph    
Max Gust Speed 25 mph    
Visibility 10 miles    
Events      
T = Trace of Precipitation, MM = Missing Value Source: NWS Daily Summary

Daily Weather History Graph

Daily Weather History Graph

Search for Another Location

Airport or City:

Trip Planner

Search our weather history database for the weather conditions in past years. The results will help you decide how hot, cold, wet, or windy it might be!

Date:

Astronomy

Jun. 10, 2013 Rise Set
Actual Time 5:44 AM MDT 9:09 PM MDT
Civil Twilight 5:08 AM MDT 9:44 PM MDT
Nautical Twilight 4:22 AM MDT 10:31 PM MDT
Astronomical Twilight 3:23 AM MDT 11:31 PM MDT
Moon 7:39 AM MDT (6/10) 10:34 PM MDT (6/10)
Length of Visible Light 16h 36m
Length of Day
15h 24m
Waxing Crescent, 4% of the Moon is Illuminated
Jun 10
Waxing Crescent
Jun 16
First Quarter
Jun 23
Full
Jun 29
Last Quarter
Jul 8
New

Hourly Weather History & Observations

Time (MDT) Temp. Dew Point Humidity Pressure Visibility Wind Dir Wind Speed Gust Speed Precip Events Conditions
12:53 AM 70.0 °F 39.0 °F 32% 29.71 in 10.0 mi SSW 10.4 mph - N/A   Clear
1:53 AM 66.9 °F 41.0 °F 39% 29.70 in 10.0 mi South 8.1 mph - N/A   Clear
2:53 AM 60.1 °F 44.1 °F 55% 29.71 in 10.0 mi North 4.6 mph - N/A   Clear
3:53 AM 60.1 °F 44.1 °F 55% 29.71 in 10.0 mi NE 3.5 mph - N/A   Clear
4:53 AM 55.9 °F 44.1 °F 64% 29.72 in 10.0 mi NNE 4.6 mph - N/A   Clear
5:53 AM 55.0 °F 44.1 °F 67% 29.73 in 10.0 mi ENE 5.8 mph - N/A   Clear
6:53 AM 54.0 °F 45.0 °F 72% 29.73 in 10.0 mi NE 4.6 mph - N/A   Clear
7:53 AM 55.9 °F 46.9 °F 72% 29.72 in 10.0 mi ENE 4.6 mph - N/A   Partly Cloudy
8:53 AM 60.1 °F 48.9 °F 67% 29.75 in 10.0 mi Calm Calm - N/A   Clear
9:53 AM 72.0 °F 48.9 °F 44% 29.73 in 10.0 mi SSW 5.8 mph - N/A   Clear
10:53 AM 77.0 °F 46.0 °F 33% 29.72 in 10.0 mi SW 10.4 mph - N/A   Clear
11:53 AM 84.0 °F 45.0 °F 25% 29.69 in 10.0 mi SSW 12.7 mph - N/A   Clear
12:53 PM 84.9 °F 43.0 °F 23% 29.67 in 10.0 mi SW 13.8 mph 23.0 mph N/A   Clear
1:53 PM 84.9 °F 44.1 °F 24% 29.66 in 10.0 mi SSW 12.7 mph - N/A   Clear
2:53 PM 89.1 °F 44.1 °F 21% 29.65 in 10.0 mi SSW 13.8 mph - N/A   Clear
3:53 PM 84.9 °F 48.9 °F 29% 29.64 in 10.0 mi WSW 8.1 mph - N/A   Clear
4:53 PM 88.0 °F 48.0 °F 25% 29.61 in 10.0 mi SW 12.7 mph - N/A   Clear
5:53 PM 86.0 °F 46.9 °F 26% 29.60 in 10.0 mi SW 8.1 mph - N/A   Clear
6:53 PM 86.0 °F 51.1 °F 30% 29.58 in 10.0 mi SW 8.1 mph - N/A   Clear
7:53 PM 82.9 °F 32.0 °F 16% 29.58 in 10.0 mi SSW 11.5 mph - N/A   Clear
8:53 PM 75.0 °F 32.0 °F 21% 29.59 in 10.0 mi South 6.9 mph - N/A   Clear
9:53 PM 73.0 °F 28.0 °F 19% 29.57 in 10.0 mi South 11.5 mph - N/A   Clear
10:53 PM 71.1 °F 28.0 °F 20% 29.58 in 10.0 mi South 10.4 mph - N/A   Clear
11:53 PM 71.1 °F 27.0 °F 19% 29.56 in 10.0 mi South 11.5 mph - N/A   Clear